Regional Weather Roundup
Issued by NWS Northern Indiana

Home | Current Version | Previous Version | Text Only | Print | Product List | Glossary Off
Versions: 1 2 3 4 5 6 7 8 9 10 11 12 13 14 15 16 17 18 19 20 21 22 23 24 25 26 27 28 29 30 31 32 33 34 35 36 37 38 39 40 41 42 43 44 45 46 47 48 49 50

000
ASUS43 KIWX 290300
RWRIWX

KIWX WEATHER ROUNDUP
NATIONAL WEATHER SERVICE NORTHERN INDIANA
1100 PM EDT SAT MAY 28 2016

NOTE: "FAIR" INDICATES FEW OR NO CLOUDS BELOW 12,000 FEET WITH NO
SIGNIFICANT WEATHER AND/OR OBSTRUCTIONS TO VISIBILITY.

* THESE STATIONS ARE NOT UNDER NWS QUALITY CONTROL. THEY ALSO MAY NOT
  REPORT WEATHER SUCH AS PRECIPITATION OR FOG.

INZ001>027-290400-
NORTHERN INDIANA

CITY           SKY/WX    TMP DP  RH WIND       PRES   REMARKS
GARY*          PTCLDY    77  70  78 S8        29.95R
SOUTH BEND     PTCLDY    75  63  66 S13       29.98S
GOSHEN         MOCLDY    73  63  70 S10       30.00S
ANGOLA*          N/A     72  64  78 S5        30.03S
FORT WAYNE     LGT RAIN  72  65  78 S10       30.04S

$$
INZ028>050-290400-
CENTRAL INDIANA

CITY           SKY/WX    TMP DP  RH WIND       PRES   REMARKS
LAFAYETTE      PTCLDY    72  65  78 S7        30.00R
KOKOMO*        MOCLDY    73  61  64 S12G17    30.03S
MUNCIE*        CLOUDY    72  66  81 S7        30.05S
INDIANAPOLIS   CLOUDY    73  65  75 S9        30.03R

$$
MIZ043>046-050>051-056>058-064>065-071>073-077>080-290400-
SOUTHWEST LOWER MICHIGAN

CITY           SKY/WX    TMP DP  RH WIND       PRES   REMARKS
BATTLE CREEK   CLOUDY    73  63  70 S12G23    30.00S
BENTON HARBOR  CLOUDY    76  61  59 S9G17     29.95R
COLDWATER*     CLOUDY    73  64  72 S6        30.01F
HILLSDALE*     PTCLDY    69  62  77 S5        30.05S
HOLLAND        CLEAR     71  62  73 S7        29.95R
GRAND RAPIDS   PTCLDY    73  62  68 S8        29.96R
KALAMAZOO      CLOUDY    74  62  66 S12       29.99R
STURGIS*       CLOUDY    73  64  74 S8        30.00S
THREE RIVERS*  FAIR      74  62  67 S8        30.00S

$$
OHZ001>008-015>018-024>025-290400-
NORTHWEST OHIO

CITY           SKY/WX    TMP DP  RH WIND       PRES   REMARKS
DEFIANCE       CLOUDY    71  63  75 S7        30.04F
FINDLAY        CLEAR     69  61  75 S6        30.07S
TOLEDO EXPRESS CLOUDY    72  61  68 S5        30.05S
TOLEDO METCALF CLOUDY    74  61  63 S6        30.06S
LIMA           CLOUDY    68  63  84 S6        30.08S

$$
AND FOR LAKE MICHIGAN COASTAL AND OPEN LAKE BUOY OBSERVATIONS

STATION/POSITION TEMP    WIND        PRES    VSBY  WAVE
                 AIR SEA DIR/SP/G                  HT/PER
                 (F)     (DEG/KT/KT) (MB)    (MI)  (FT/S)
CALUMET HARBOR                       1012.3F
MICHIGAN CITY     78     140/  9/ 13   N/A
BURNS HARBOR      77     180/ 11/ 19 1013.9S
SAINT JOSEPH      78     170/  3/  9 1014.9R
SOUTH LAKE BUOY   59 50  150/ 14/ 16 1011.9          1/ 3
4 MI NW BRIDGMAN  70 60  160/ 10/ 12   N/A           2/ 3
MICHIGAN CITY     68 57  160/  6/ 10   N/A           1/ 3

$$
&&




USA.gov is the U.S. government's official web portal to all federal, state and local government web resources and services.